TimeEDT,TemperatureF,Dew PointF,Humidity,Sea Level PressureIn,VisibilityMPH,Wind Direction,Wind SpeedMPH,Gust SpeedMPH,PrecipitationIn,Events,Conditions,WindDirDegrees,DateUTC
12:34 AM,44.6,33.8,66,30.19,10.0,North,10.4,19.6,N/A,,Overcast,360,2012-10-12 04:34:00
12:53 AM,45.0,34.0,65,30.22,10.0,NNW,9.2,-,N/A,,Overcast,330,2012-10-12 04:53:00
1:53 AM,42.8,35.6,76,30.23,10.0,NNW,9.2,18.4,N/A,Rain,Light Rain,340,2012-10-12 05:53:00
2:53 AM,42.1,35.1,76,30.23,10.0,WNW,6.9,-,0.00,,Overcast,300,2012-10-12 06:53:00
3:53 AM,42.1,36.0,79,30.24,10.0,WNW,8.1,-,N/A,,Overcast,290,2012-10-12 07:53:00
4:53 AM,42.1,36.0,79,30.26,10.0,WNW,6.9,-,N/A,,Mostly Cloudy,300,2012-10-12 08:53:00
5:53 AM,42.1,34.0,73,30.30,10.0,NW,5.8,-,N/A,,Clear,310,2012-10-12 09:53:00
6:53 AM,39.9,33.1,77,30.32,10.0,NNW,6.9,-,N/A,,Clear,330,2012-10-12 10:53:00
7:53 AM,39.0,30.9,73,30.36,10.0,NNW,5.8,-,N/A,,Clear,330,2012-10-12 11:53:00
8:53 AM,39.9,32.0,73,30.39,10.0,NNW,8.1,-,N/A,,Clear,340,2012-10-12 12:53:00
9:53 AM,43.0,33.1,68,30.41,10.0,North,11.5,-,N/A,,Clear,360,2012-10-12 13:53:00
10:53 AM,46.0,33.1,61,30.43,10.0,North,11.5,-,N/A,,Clear,10,2012-10-12 14:53:00
11:53 AM,48.2,33.8,58,30.43,10.0,NNE,10.4,-,N/A,,Partly Cloudy,20,2012-10-12 15:53:00
12:53 PM,51.8,32.0,47,30.44,10.0,NNE,11.5,-,N/A,,Partly Cloudy,20,2012-10-12 16:53:00
1:53 PM,48.9,30.0,48,30.44,10.0,NE,3.5,-,N/A,,Mostly Cloudy,50,2012-10-12 17:53:00
2:53 PM,52.0,32.0,47,30.43,10.0,Variable,4.6,-,N/A,,Scattered Clouds,0,2012-10-12 18:53:00
3:53 PM,48.0,33.1,56,30.43,10.0,East,5.8,-,N/A,,Scattered Clouds,90,2012-10-12 19:53:00
4:53 PM,50.0,34.0,54,30.42,10.0,SE,4.6,-,N/A,,Partly Cloudy,130,2012-10-12 20:53:00
5:53 PM,48.2,33.8,58,30.41,10.0,SE,4.6,-,N/A,,Clear,140,2012-10-12 21:53:00
6:53 PM,45.0,28.9,53,30.42,10.0,SE,4.6,-,N/A,,Clear,130,2012-10-12 22:53:00
7:53 PM,44.1,28.9,55,30.42,10.0,Calm,Calm,-,N/A,,Clear,0,2012-10-12 23:53:00
8:53 PM,41.0,30.0,65,30.43,10.0,Calm,Calm,-,N/A,,Clear,0,2012-10-13 00:53:00
9:53 PM,39.2,30.2,70,30.42,10.0,SSE,3.5,-,N/A,,Clear,160,2012-10-13 01:53:00
10:53 PM,39.9,30.0,68,30.43,10.0,SE,3.5,-,N/A,,Clear,140,2012-10-13 02:53:00
11:53 PM,37.9,30.9,76,30.43,10.0,Calm,Calm,-,N/A,,Clear,0,2012-10-13 03:53:00